FIN9T EETN-EFHK

Flight info

Callsign FIN9T
Flight time 0h 20m
Altitude 11000
Route INTOR
Aircraft E190/M-SDE3GILORVW/S

Departure

Time 2026-04-26 08:30
Airport Lennart Meri Tallinn Airport (EETN)

Arrival

Time 2026-04-26 08:50
Airport Helsinki Vantaa Airport (EFHK)
Time Latitude Longitude Altitude Speed Heading
2026-04-26 08:20 59.41573 24.81338 153 ft 0 kts 270°
2026-04-26 08:22 59.41573 24.81339 153 ft 0 kts 270°
2026-04-26 08:22 59.41573 24.81357 153 ft 0 kts 269°
2026-04-26 08:23 59.41576 24.81384 152 ft 2 kts 235°
2026-04-26 08:23 59.41586 24.81404 152 ft 2 kts 204°
2026-04-26 08:23 59.41595 24.81409 152 ft 0 kts 182°
2026-04-26 08:23 59.41603 24.81409 152 ft 0 kts 179°
2026-04-26 08:25 59.41594 24.81409 152 ft 3 kts 179°
2026-04-26 08:25 59.41556 24.81412 151 ft 7 kts 177°
2026-04-26 08:25 59.41508 24.81485 149 ft 11 kts 99°
2026-04-26 08:26 59.41505 24.81653 148 ft 12 kts 89°
2026-04-26 08:26 59.41507 24.81836 148 ft 13 kts 89°
2026-04-26 08:26 59.41505 24.82025 148 ft 14 kts 91°
2026-04-26 08:26 59.41504 24.82241 148 ft 17 kts 89°
2026-04-26 08:27 59.41504 24.82506 148 ft 20 kts 89°
2026-04-26 08:27 59.41502 24.82813 148 ft 24 kts 89°
2026-04-26 08:27 59.41501 24.83190 148 ft 31 kts 90°
2026-04-26 08:27 59.41501 24.83669 151 ft 38 kts 90°
2026-04-26 08:28 59.41503 24.84203 151 ft 39 kts 90°
2026-04-26 08:28 59.41495 24.84695 151 ft 32 kts 91°
2026-04-26 08:28 59.41473 24.84982 151 ft 14 kts 139°
2026-04-26 08:28 59.41375 24.85005 151 ft 14 kts 180°
2026-04-26 08:29 59.41324 24.84950 151 ft 7 kts 261°
2026-04-26 08:29 59.41322 24.84905 151 ft 1 kts 270°
2026-04-26 08:29 59.41323 24.84386 152 ft 83 kts 272°
2026-04-26 08:29 59.41324 24.82738 174 ft 155 kts 276°
2026-04-26 08:30 59.41286 24.80569 910 ft 166 kts 287°
2026-04-26 08:30 59.41828 24.78791 1879 ft 156 kts 331°
2026-04-26 08:30 59.42890 24.78583 2668 ft 171 kts 13°
2026-04-26 08:30 59.44023 24.79290 3491 ft 179 kts
2026-04-26 08:31 59.45268 24.79877 4237 ft 193 kts 15°
2026-04-26 08:31 59.46493 24.81164 4915 ft 214 kts 23°
2026-04-26 08:31 59.47851 24.82619 5620 ft 232 kts 22°
2026-04-26 08:31 59.49280 24.84097 6687 ft 236 kts 22°
2026-04-26 08:32 59.50706 24.85540 7801 ft 236 kts 22°
2026-04-26 08:32 59.52158 24.86989 8790 ft 240 kts 22°
2026-04-26 08:32 59.53635 24.88456 9688 ft 246 kts 22°
2026-04-26 08:32 59.55163 24.89968 10482 ft 247 kts 23°
2026-04-26 08:33 59.56781 24.91565 10645 ft 273 kts 23°
2026-04-26 08:33 59.58554 24.93317 10674 ft 295 kts 24°
2026-04-26 08:33 59.60395 24.95142 10657 ft 301 kts 24°
2026-04-26 08:33 59.62265 24.96996 10649 ft 299 kts 24°
2026-04-26 08:34 59.64108 24.98825 10647 ft 300 kts 24°
2026-04-26 08:34 59.65970 25.00675 10646 ft 300 kts 24°
2026-04-26 08:34 59.67841 25.02534 10647 ft 299 kts 24°
2026-04-26 08:34 59.69688 25.04373 10645 ft 300 kts 24°
2026-04-26 08:35 59.71560 25.06239 10639 ft 300 kts 24°
2026-04-26 08:35 59.73413 25.08088 10637 ft 300 kts 24°
2026-04-26 08:35 59.75232 25.09907 10625 ft 287 kts 24°
2026-04-26 08:35 59.76956 25.11634 10615 ft 268 kts 24°
2026-04-26 08:36 59.78588 25.13268 10609 ft 256 kts 24°
2026-04-26 08:36 59.80158 25.14841 10625 ft 253 kts 23°
2026-04-26 08:36 59.81720 25.16406 10496 ft 256 kts 24°
2026-04-26 08:36 59.83318 25.18012 10223 ft 256 kts 23°
2026-04-26 08:37 59.84868 25.19571 9952 ft 252 kts 23°
2026-04-26 08:37 59.86419 25.21132 9677 ft 249 kts 24°
2026-04-26 08:37 59.87952 25.22677 9402 ft 247 kts 24°
2026-04-26 08:37 59.89478 25.24216 9121 ft 245 kts 23°
2026-04-26 08:38 59.91005 25.25677 8854 ft 243 kts 20°
2026-04-26 08:38 59.92551 25.27025 8585 ft 241 kts 20°
2026-04-26 08:38 59.94064 25.28345 8320 ft 239 kts 20°
2026-04-26 08:38 59.95585 25.29674 8058 ft 236 kts 20°
2026-04-26 08:39 59.97073 25.30975 7795 ft 231 kts 20°
2026-04-26 08:39 59.98508 25.32232 7538 ft 220 kts 19°
2026-04-26 08:39 59.99881 25.33437 7292 ft 210 kts 19°
2026-04-26 08:39 60.01179 25.34575 7063 ft 201 kts 19°
2026-04-26 08:40 60.02430 25.35673 6846 ft 192 kts 19°
2026-04-26 08:40 60.03612 25.36711 6628 ft 184 kts 19°
2026-04-26 08:40 60.04773 25.37730 6435 ft 182 kts 19°
2026-04-26 08:40 60.05937 25.38752 6248 ft 183 kts 18°
2026-04-26 08:41 60.07165 25.38967 5928 ft 183 kts 339°
2026-04-26 08:41 60.08059 25.37090 5752 ft 204 kts 299°
2026-04-26 08:41 60.08524 25.34390 5516 ft 203 kts 303°
2026-04-26 08:41 60.09140 25.31911 5276 ft 197 kts 308°
2026-04-26 08:42 60.09851 25.29592 5056 ft 193 kts 312°
2026-04-26 08:42 60.10607 25.27402 4852 ft 190 kts 314°
2026-04-26 08:42 60.11382 25.25304 4654 ft 189 kts 315°
2026-04-26 08:42 60.12161 25.23268 4525 ft 178 kts 315°
2026-04-26 08:43 60.12912 25.21353 4282 ft 170 kts 316°
2026-04-26 08:43 60.13631 25.19543 4069 ft 161 kts 317°
2026-04-26 08:43 60.14296 25.17878 4030 ft 151 kts 317°
2026-04-26 08:43 60.14961 25.16231 3995 ft 152 kts 317°
2026-04-26 08:44 60.15639 25.14561 3890 ft 154 kts 320°
2026-04-26 08:44 60.16482 25.13416 3772 ft 142 kts 336°
2026-04-26 08:44 60.17335 25.12522 3563 ft 135 kts 336°
2026-04-26 08:44 60.18139 25.11688 3356 ft 128 kts 336°
2026-04-26 08:45 60.18903 25.10897 3246 ft 115 kts 336°
2026-04-26 08:45 60.19595 25.10142 3039 ft 113 kts 337°
2026-04-26 08:45 60.20288 25.09451 2953 ft 107 kts 338°
2026-04-26 08:45 60.20940 25.08798 2828 ft 104 kts 337°
2026-04-26 08:46 60.21584 25.08152 2675 ft 102 kts 337°
2026-04-26 08:46 60.22210 25.07524 2463 ft 102 kts 336°
2026-04-26 08:46 60.22836 25.06897 2244 ft 102 kts 338°
2026-04-26 08:46 60.23460 25.06263 2032 ft 102 kts 336°
2026-04-26 08:47 60.24075 25.05631 1877 ft 99 kts 336°
2026-04-26 08:47 60.24702 25.04960 1723 ft 102 kts 334°
2026-04-26 08:47 60.25312 25.04288 1635 ft 101 kts 336°
2026-04-26 08:47 60.25938 25.03625 1530 ft 103 kts 335°
2026-04-26 08:48 60.26588 25.02957 1371 ft 101 kts 335°
2026-04-26 08:48 60.27234 25.02290 1183 ft 103 kts 335°
2026-04-26 08:48 60.27881 25.01647 990 ft 100 kts 335°
2026-04-26 08:48 60.28518 25.01025 807 ft 102 kts 334°
2026-04-26 08:49 60.29149 25.00419 616 ft 98 kts 333°
2026-04-26 08:49 60.29757 24.99749 445 ft 108 kts 338°
2026-04-26 08:49 60.30432 24.99100 311 ft 111 kts 334°
2026-04-26 08:49 60.31067 24.98457 190 ft 93 kts 333°
2026-04-26 08:50 60.31552 24.97965 185 ft 50 kts 333°
2026-04-26 08:50 60.31684 24.97746 187 ft 16 kts 277°
2026-04-26 08:50 60.31671 24.97619 188 ft 2 kts 243°
2026-04-26 08:50 60.31669 24.97614 188 ft 0 kts 244°
2026-04-26 08:51 60.31658 24.97568 189 ft 6 kts 244°
2026-04-26 08:51 60.31636 24.97476 191 ft 7 kts 246°
2026-04-26 08:51 60.31627 24.97417 192 ft 2 kts 253°
2026-04-26 08:52 60.31624 24.97403 193 ft 1 kts 250°
2026-04-26 08:52 60.31614 24.97359 193 ft 5 kts 245°
2026-04-26 08:52 60.31598 24.97295 193 ft 3 kts 244°
2026-04-26 08:52 60.31596 24.97287 193 ft 0 kts 244°